Regional Weather Roundup
Issued by NWS Northern Indiana

Home | Current Version | Previous Version | Text Only | Print | Product List | Glossary Off
Versions: 1 2 3 4 5 6 7 8 9 10 11 12 13 14 15 16 17 18 19 20 21 22 23 24 25 26 27 28 29 30 31 32 33 34 35 36 37 38 39 40 41 42 43 44 45 46 47 48 49 50

000
ASUS43 KIWX 171310
RWRIWX

KIWX WEATHER ROUNDUP
NATIONAL WEATHER SERVICE NORTHERN INDIANA
800 AM EST WED JAN 17 2018

NOTE: "FAIR" INDICATES FEW OR NO CLOUDS BELOW 12,000 FEET WITH NO
SIGNIFICANT WEATHER AND/OR OBSTRUCTIONS TO VISIBILITY.

* THESE STATIONS ARE NOT UNDER NWS QUALITY CONTROL. THEY ALSO MAY NOT
  REPORT WEATHER SUCH AS PRECIPITATION OR FOG.

INZ001>027-171400-
NORTHERN INDIANA

CITY           SKY/WX    TMP DP  RH WIND       PRES   REMARKS
GARY*          CLEAR    N/A N/A N/A W12       30.55R
VALPARAISO     FAIR       1  -4  79 SW7       30.52R HAZE    WCI -12
MICHIGAN CITY* FLURRIES   5   3  92 SW6       30.52S WCI  -6
LAPORTE*       FAIR      -6 -10  83 W3        30.51S FOG
KNOX*          FAIR       0  -4  85 CALM      30.53R
SOUTH BEND     FAIR       6   4  91 SW6       30.49S WCI  -4
ELKHART*       FLURRIES  10   9  92 CALM      30.48S
GOSHEN         CLOUDY     8   5  87 SW6       30.49R FOG     WCI  -2
MONTICELLO*    FAIR       0  -4  83 W5        30.55S WCI -10
LOGANSPORT*    FLURRIES   0  -6  78 SW7       30.55S WCI -13
ROCHESTER*     FAIR      10   7  85 W8        30.52S WCI  -1
WARSAW*        CLOUDY    12   9  85 W5        30.49S WCI   4
AUBURN*        CLOUDY     7   3  85 W5        30.49S WCI  -2
FORT WAYNE     LGT SNOW   7   4  87 SW6       30.51S FOG     WCI  -3
HUNTINGTON*    CLOUDY     8   5  89 SW5       30.51S WCI  -1
PERU/GRISSOM   MOCLDY     1  -1  90 W7        30.52R WCI -12
MARION*        FLURRIES   7   5  89 CALM      30.53S

$$
INZ028>050-171400-
CENTRAL INDIANA

CITY           SKY/WX    TMP DP  RH WIND       PRES   REMARKS
LAFAYETTE      FAIR      -1  -3  91 SW3       30.57S
MUNCIE*        CLOUDY     9   4  80 W7        30.52R WCI  -2
INDIANAPOLIS   FAIR       0  -3  87 W9        30.56R WCI -15

$$
MIZ043>046-050>051-056>058-064>065-071>073-077>080-171400-
SOUTHWEST LOWER MICHIGAN

CITY           SKY/WX    TMP DP  RH WIND       PRES   REMARKS
BATTLE CREEK   LGT SNOW  10   7  87 SW6       30.44F FOG     WCI   0
BENTON HARBOR  FAIR      22  12  65 W9        30.47F WCI  12
COLDWATER*     FLURRIES   9   7  92 CALM      30.45F
HILLSDALE*     CLOUDY     9   3  78 CALM      30.42S
HOLLAND        MOCLDY    12   7  80 S5        30.44F WCI   4
GRAND RAPIDS   MOCLDY    14   8  77 SW8       30.42F WCI   3
KALAMAZOO      CLOUDY    11   7  84 S6        30.45F WCI   1
STURGIS*       LGT SNOW   9   6  87 CALM      30.46S
THREE RIVERS*  LGT SNOW   8   5  86 S5        30.47F WCI   0

$$
OHZ001>008-015>018-024>025-171400-
NORTHWEST OHIO

CITY           SKY/WX    TMP DP  RH WIND       PRES   REMARKS
WAUSEON*       CLOUDY     5   5 100 SW6       30.48S WCI  -6
DEFIANCE       CLOUDY     4  -1  80 SW6       30.51S WCI  -7
FINDLAY        LGT SNOW  10   4  76 W12       30.50R WCI  -5
TOLEDO EXPRESS CLOUDY     4   2  91 SW8       30.49R WCI  -9
TOLEDO METCALF CLOUDY     5   2  87 SW10      30.50S FOG     WCI -10
LIMA           LGT SNOW   8   7  95 SW9       30.49S FOG     WCI  -5

$$
AND FOR LAKE MICHIGAN COASTAL AND OPEN LAKE BUOY OBSERVATIONS

STATION/POSITION TEMP    WIND        PRES    VSBY  WAVE
                 AIR SEA DIR/SP/G                  HT/PER
                 (F)     (DEG/KT/KT) (MB)    (MI)  (FT/S)
CALUMET HARBOR     7     240/  5/  8 1033.0R
MICHIGAN CITY     12     190/  9/ 10   N/A
BURNS HARBOR       9     220/  7/  8 1034.2R
SAINT JOSEPH      24     270/ 13/ 16 1032.5

$$
&&




USA.gov is the U.S. government's official web portal to all federal, state and local government web resources and services.